Location: Audrecelles
(50.8240°N, 1.5923°E)
Time: 02:45:59
(UTC+00:00)

Cosmos 44 - Pass Details

Date: 22 October 2025
Orbit: 576 x 774 km, 65.1° (Epoch: 13 November)

Event Time Altitude Azimuth Distance (km) Brightness Sun altitude
Exits shadow 05:06:08 17° 297° (WNW) 1,808 4.9 -13.6°
Maximum altitude 05:09:27 35° 242° (WSW) 1,207 4.1 -13.1°
Drops below altitude 10° 05:14:12 10° 178° (S) 2,296 6.0 -12.4°
Sets 05:16:47 0° 170° (S) 3,230 6.9 -12.0°
